This is the latest recevied weather packets stored in our database for station/object KC8YYF. If no packets are shown the sender has not sent any weather packets the latest 10 day(s).
| Time | Temp. | Humidity | Pressure | Rain* | Wind** | Luminosity | Snow |
|---|---|---|---|---|---|---|---|
| 1777845116 | 14.44° C | 42% | 1014.8 hPa | 0 mm | - | 78 W/m² | - |
| 1777844204 | 15° C | 41% | 1014.8 hPa | 0 mm | - | 62 W/m² | - |
| 1777843900 | 15° C | 44% | 1015.3 hPa | 0 mm | - | 70 W/m² | - |
| 1777843295 | 16.11° C | 43% | 1014.9 hPa | 0 mm | - | 174 W/m² | - |
| 1777842687 | 15.56° C | 43% | 1014.8 hPa | 0 mm | - | 236 W/m² | - |
| 1777842384 | 15° C | 45% | 1015.1 hPa | 0 mm | - | 177 W/m² | - |
| 1777842081 | 15.56° C | 42% | 1015.1 hPa | 0 mm | - | 138 W/m² | - |
| 1777841777 | 15.56° C | 42% | 1014.8 hPa | 0 mm | - | 318 W/m² | - |
| 1777841473 | 16.67° C | 41% | 1014.9 hPa | 0 mm | - | 357 W/m² | - |
| 1777841170 | 16.11° C | 39% | 1015.1 hPa | 0 mm | - | 400 W/m² | - |
| 1777840868 | 16.11° C | 39% | 1015.1 hPa | 0 mm | - | 394 W/m² | - |
| 1777840261 | 15.56° C | 42% | 1015.2 hPa | 0 mm | - | 77 W/m² | - |
| 1777839959 | 16.11° C | 41% | 1015 hPa | 0 mm | - | 99 W/m² | - |
| 1777839657 | 15.56° C | 45% | 1015.2 hPa | 0 mm | - | 106 W/m² | - |
| 1777839355 | 15.56° C | 43% | 1015.3 hPa | 0 mm | - | 104 W/m² | - |
| 1777839052 | 15.56° C | 40% | 1015.3 hPa | 0 mm | - | 111 W/m² | - |
| 1777838748 | 15.56° C | 47% | 1015.3 hPa | 0 mm | - | 94 W/m² | - |
| 1777838142 | 15.56° C | 43% | 1015.6 hPa | 0 mm | - | 161 W/m² | - |
| 1777837536 | 15° C | 45% | 1015.9 hPa | 0 mm | - | 109 W/m² | - |
| 1777836628 | 15° C | 41% | 1016.2 hPa | 0 mm | - | 133 W/m² | - |
| 1777835414 | 14.44° C | 45% | 1016.3 hPa | 0 mm | - | 93 W/m² | - |
| 1777835111 | 15° C | 42% | 1016.5 hPa | 0 mm | - | 84 W/m² | - |
| 1777833895 | 14.44° C | 42% | 1016.7 hPa | 0 mm | - | 106 W/m² | - |
| 1777830867 | 14.44° C | 43% | 1017.1 hPa | 0 mm | - | 102 W/m² | - |
| 1777828142 | 15° C | 45% | 1017.7 hPa | 0 mm | - | 696 W/m² | - |
* Rain latest hour (hover to see other rain measurements)
** Current wind speed in m/s (hover to see current wind gust speed)